[[{"header":{"parameterUnit":"m.s-1","parameterCategory":1,"la1":30.2991,"la2":30.254,"lo1":-89.0895,"lo2":-89.0444,"dy":0.0017,"dx":0.0017,"nx":28,"ny":28,"refTime":"2025-07-26T21:00:00:Z","depth":0,"parameterNumber":2,"parameterNumberName":"U-component_of_WINDS"},"data":[0,0,0,0,0,0,0,0,0,0,0,0,0,0,0,0,0,0,0,0,0,0,0,0,0,0,0,0,0,0,0,0,0,0,0,0,0,0,0,0,0,0,0,0,0,0,0,0,0,0,0,0,0,0,0,0,0,0,-0.1295,-0.1295,0,-0.1272,-0.1272,-0.1271,-0.1251,-0.125,-0.125,-0.125,-0.1227,-0.1226,-0.1226,0,0,0,0,0,0,0,0,0,0,0,0,0,-0.1322,-0.1321,-0.1295,-0.1295,-0.1294,-0.1272,-0.1272,-0.1271,-0.1251,-0.125,-0.125,-0.125,-0.1227,-0.1226,-0.1226,0,0,0,0,0,0,0,0,0,0,0,0,0,-0.1306,-0.1321,-0.1295,-0.1281,-0.128,-0.1272,-0.1272,-0.1271,-0.1251,-0.125,-0.125,-0.125,-0.1227,-0.1226,-0.1226,-0.123,0,0,-0.1224,-0.1224,0,0,0,0,0,0,0,0,-0.1307,-0.1305,-0.1284,-0.1282,-0.1281,-0.1264,-0.1273,-0.1257,-0.1251,-0.1262,-0.125,-0.1249,-0.1239,-0.1238,-0.1234,-0.1229,-0.1228,-0.1224,-0.1224,-0.1223,-0.1223,0,0,0,0,0,0,0,-0.1308,-0.1306,-0.1286,-0.1283,-0.1282,-0.1277,-0.1274,-0.127,-0.1253,-0.1261,-0.1259,-0.1257,-0.1238,-0.1235,-0.1234,-0.1227,-0.1224,-0.1223,-0.1223,-0.1223,-0.1224,-0.1224,0,0,0,0,0,0,-0.1311,-0.1307,-0.1287,-0.1285,-0.1293,-0.1277,-0.1273,-0.127,-0.1253,-0.125,-0.1257,-0.1256,-0.1236,-0.1234,-0.1233,-0.1236,-0.1223,-0.1223,-0.1222,-0.1223,-0.1224,-0.1224,0,0,0,0,0,0,-0.1312,-0.1309,-0.1288,-0.1295,-0.1292,-0.1276,-0.1272,-0.1269,-0.1266,-0.125,-0.1247,-0.1256,-0.1236,-0.1233,-0.1231,-0.1235,-0.1223,-0.1222,-0.1223,-0.1223,-0.1224,-0.1243,0,0,0,0,0,0,-0.1312,-0.131,-0.1311,-0.1296,-0.1292,-0.1286,-0.1273,-0.1269,-0.1265,-0.1263,-0.1249,-0.1246,-0.1235,-0.1232,-0.123,-0.1234,-0.1222,-0.1222,-0.1223,-0.1224,-0.1241,-0.1244,-0.1246,0,0,0,0,0,-0.1313,-0.1317,-0.1311,-0.1309,-0.1293,-0.1286,-0.1284,-0.1271,-0.1265,-0.1266,-0.1256,-0.1246,-0.1235,-0.1231,-0.1229,-0.1233,-0.1222,-0.1223,-0.1224,-0.1241,-0.1243,-0.1245,0,0,0,0,0,0,-0.1333,-0.1315,-0.1308,-0.1306,-0.1298,-0.1282,-0.1283,-0.1274,-0.1268,-0.1266,-0.1251,-0.1248,-0.1247,-0.124,-0.1236,-0.1236,-0.1227,-0.1228,-0.1241,-0.1243,-0.1245,-0.1246,-0.1221,0,0,0,0,0,-0.1337,-0.1333,-0.1317,-0.1318,-0.1314,-0.1299,-0.1296,-0.1287,-0.1277,-0.1274,-0.1264,-0.1255,-0.1249,-0.1246,-0.124,-0.1241,-0.1237,-0.1242,-0.1244,-0.1246,-0.1246,-0.1246,-0.1248,-0.1227,-0.1227,-0.1227,0,0,-0.1346,-0.1335,-0.1333,-0.1321,-0.1313,-0.1309,-0.1296,-0.1293,-0.1289,-0.1273,-0.127,-0.1262,-0.1251,-0.125,-0.1249,-0.1245,-0.1252,-0.1247,-0.1249,-0.1248,-0.1247,-0.125,-0.1251,-0.1227,-0.1227,-0.1227,0,0,-0.1359,-0.1351,-0.135,-0.1343,-0.1331,-0.1322,-0.1322,-0.1308,-0.1302,-0.1298,-0.1286,-0.1282,-0.1273,-0.1266,-0.1261,-0.1272,-0.1263,-0.1271,-0.1281,-0.1281,-0.1283,-0.1284,-0.1288,-0.129,-0.1271,-0.1271,-0.1271,0,-0.1371,-0.1364,-0.1351,-0.1348,-0.1343,-0.1328,-0.1327,-0.1321,-0.1308,-0.1305,-0.13,-0.1288,-0.128,-0.1277,-0.128,-0.1276,-0.1276,-0.1272,-0.1284,-0.1285,-0.1286,-0.129,-0.1291,-0.1272,-0.1272,-0.1272,-0.1272,0,-0.1379,-0.1375,-0.1376,-0.1364,-0.1359,-0.1357,-0.1344,-0.1341,-0.1333,-0.1324,-0.132,-0.131,-0.1302,-0.1301,-0.1293,-0.1297,-0.1294,-0.1287,-0.1277,-0.129,-0.1293,-0.1294,-0.1274,-0.1273,-0.1273,-0.1273,0,0,-0.1403,-0.1384,-0.1385,-0.1379,-0.1366,-0.1362,-0.136,-0.1352,-0.1349,-0.1342,-0.1339,-0.1332,-0.1325,-0.132,-0.1311,-0.1311,-0.132,-0.1303,-0.1303,-0.1307,-0.1324,-0.133,-0.1331,-0.1315,-0.1315,-0.1315,-0.1325,0,-0.1414,-0.1409,-0.1397,-0.1395,-0.1391,-0.1378,-0.1376,-0.1367,-0.1359,-0.1355,-0.1346,-0.1341,-0.1332,-0.1329,-0.1329,-0.1319,-0.1324,-0.1319,-0.1312,-0.1312,-0.1315,-0.1333,-0.1339,-0.1349,-0.1326,-0.1326,-0.1327,0,-0.1425,-0.1418,-0.1416,-0.1403,-0.1401,-0.14,-0.1391,-0.1387,-0.1378,-0.1372,-0.1366,-0.1356,-0.1354,-0.1346,-0.1341,-0.1338,-0.1335,-0.133,-0.133,-0.1329,-0.132,-0.1332,-0.1352,-0.1353,-0.1328,-0.1328,-0.1328,0,-0.1443,-0.1433,-0.143,-0.1426,-0.1411,-0.141,-0.1404,-0.1394,-0.139,-0.1383,-0.138,-0.1373,-0.1369,-0.1364,-0.1353,-0.1348,-0.135,-0.1341,-0.1345,-0.1345,-0.1345,-0.1345,-0.1365,-0.1344,-0.1344,-0.1344,-0.1344,0,-0.1456,-0.1455,-0.1438,-0.1436,-0.1435,-0.1422,-0.1421,-0.1414,-0.1405,-0.1402,-0.139,-0.1388,-0.1373,-0.1369,-0.136,-0.1358,-0.1357,-0.1352,-0.135,-0.1353,-0.1353,-0.135,-0.1349,-0.1345,-0.1344,-0.1344,-0.1344,0,-0.1474,-0.1463,-0.1459,-0.1446,-0.1442,-0.1442,-0.143,-0.1428,-0.142,-0.1416,-0.1415,-0.1401,-0.1396,-0.1384,-0.1376,-0.137,-0.137,-0.1366,-0.1373,-0.1371,-0.1376,-0.1376,-0.1394,-0.1395,-0.1374,-0.1375,-0.1375,0,-0.1483,-0.1482,-0.1468,-0.1465,-0.146,-0.1455,-0.1451,-0.1438,-0.1434,-0.1424,-0.1423,-0.1417,-0.1411,-0.1403,-0.1393,-0.1386,-0.1382,-0.1389,-0.1381,-0.1384,-0.1382,-0.1382,-0.1381,-0.139,-0.139,-0.1391,-0.1391,0,-0.1499,-0.1494,-0.1488,-0.1481,-0.1476,-0.147,-0.1463,-0.1461,-0.1447,-0.1443,-0.1437,-0.1433,-0.1424,-0.1418,-0.141,-0.1404,-0.1395,-0.1394,-0.1394,-0.1397,-0.1401,-0.1399,-0.1377,-0.1393,-0.1393,-0.1393,-0.1393,-0.1392,-0.1513,-0.1512,-0.1502,-0.1496,-0.1489,-0.1483,-0.1481,-0.1472,-0.1467,-0.1459,-0.1452,-0.1447,-0.1438,-0.1426,-0.1421,-0.1417,-0.1412,-0.1413,-0.1413,-0.1414,-0.1415,-0.1402,-0.1415,-0.1415,-0.1415,-0.1415,-0.1415,0,-0.1528,-0.1522,-0.1516,-0.1507,-0.1502,-0.1495,-0.1487,-0.1484,-0.1479,-0.1472,-0.1466,-0.146,-0.1454,-0.1443,-0.1437,-0.1436,-0.1431,-0.1434,-0.1434,-0.1433,-0.142,-0.142,-0.1438,-0.1438,-0.1438,-0.1438,-0.1438,-0.1438,-0.1536,-0.1533,-0.1527,-0.1521,-0.1514,-0.1509,-0.1505,-0.1499,-0.1493,-0.1486,-0.1481,-0.1475,-0.1466,-0.1459,-0.1453,-0.145,-0.1448,-0.1452,-0.1448,-0.1436,-0.1434,-0.1432,-0.1431,-0.1452,-0.1452,-0.1461,-0.1461,-0.1462]},{"header":{"parameterUnit":"m.s-1","parameterCategory":1,"la1":30.2991,"la2":30.254,"lo1":-89.0895,"lo2":-89.0444,"dy":0.0017,"dx":0.0017,"nx":28,"ny":28,"refTime":"2025-07-26T21:00:00:Z","depth":0,"parameterNumber":3,"parameterNumberName":"V-component_of_WINDS"},"data":[0,0,0,0,0,0,0,0,0,0,0,0,0,0,0,0,0,0,0,0,0,0,0,0,0,0,0,0,0,0,0,0,0,0,0,0,0,0,0,0,0,0,0,0,0,0,0,0,0,0,0,0,0,0,0,0,0,0,0.044,0.0439,0,0.0388,0.0388,0.0387,0.0358,0.0358,0.0358,0.0358,0.0303,0.0301,0.03,0,0,0,0,0,0,0,0,0,0,0,0,0,0.0512,0.0511,0.044,0.0439,0.0439,0.0388,0.0388,0.0387,0.0358,0.0358,0.0358,0.0358,0.0303,0.0301,0.03,0,0,0,0,0,0,0,0,0,0,0,0,0,0.0473,0.0511,0.044,0.0418,0.0416,0.0388,0.0388,0.0387,0.0358,0.0358,0.0358,0.0358,0.0304,0.0301,0.0299,0.0289,0,0,0.0293,0.0292,0,0,0,0,0,0,0,0,0.0475,0.047,0.0422,0.042,0.0417,0.038,0.0393,0.0354,0.0358,0.038,0.0358,0.0358,0.0328,0.0324,0.0314,0.0286,0.0284,0.0293,0.0292,0.0291,0.029,0,0,0,0,0,0,0,0.0478,0.0472,0.0419,0.0422,0.0418,0.0411,0.0405,0.0385,0.0355,0.0378,0.0376,0.037,0.0327,0.0317,0.0313,0.0283,0.0293,0.0291,0.029,0.0289,0.0243,0.0243,0,0,0,0,0,0,0.0484,0.0475,0.0421,0.0418,0.0446,0.0409,0.0403,0.0392,0.0355,0.035,0.037,0.0369,0.032,0.0315,0.0311,0.0296,0.0291,0.0289,0.0287,0.0243,0.0243,0.0243,0,0,0,0,0,0,0.0486,0.048,0.0423,0.0446,0.0438,0.0408,0.0396,0.0391,0.0381,0.035,0.0344,0.0366,0.032,0.0314,0.0295,0.0293,0.0288,0.0286,0.0243,0.0243,0.0243,0.0266,0,0,0,0,0,0,0.0488,0.0481,0.0477,0.0446,0.0437,0.0409,0.0396,0.039,0.0377,0.0375,0.0344,0.0338,0.0319,0.0298,0.0293,0.029,0.0284,0.0243,0.0243,0.0243,0.0265,0.0266,0.0268,0,0,0,0,0,0.0491,0.0485,0.0477,0.047,0.0431,0.0409,0.0403,0.0382,0.0377,0.0373,0.0353,0.0339,0.0295,0.0296,0.029,0.0287,0.0243,0.0243,0.0243,0.0264,0.0266,0.0268,0,0,0,0,0,0,0.0515,0.048,0.0471,0.0455,0.0435,0.0404,0.0397,0.0385,0.0365,0.0364,0.0338,0.0331,0.0314,0.0299,0.0301,0.0275,0.0267,0.0266,0.0285,0.0287,0.0288,0.0292,0.0282,0,0,0,0,0,0.0519,0.0504,0.0474,0.0463,0.0453,0.0427,0.0416,0.0402,0.038,0.0371,0.035,0.0328,0.0309,0.0297,0.0278,0.0263,0.0255,0.0258,0.0259,0.026,0.0259,0.0249,0.025,0.0243,0.0243,0.0243,0,0,0.0526,0.0505,0.0497,0.0467,0.045,0.0434,0.042,0.0404,0.0392,0.0368,0.0349,0.0333,0.0307,0.029,0.0281,0.0276,0.026,0.0261,0.0262,0.026,0.025,0.025,0.0251,0.0243,0.0243,0.0243,0,0,0.0531,0.0514,0.0503,0.0486,0.0461,0.0443,0.0441,0.0411,0.04,0.038,0.0362,0.0347,0.0315,0.0297,0.0284,0.0283,0.0269,0.0277,0.0285,0.0275,0.0276,0.0276,0.0275,0.0275,0.0277,0.0277,0.0277,0,0.0543,0.052,0.0498,0.0483,0.047,0.0449,0.0437,0.0421,0.0391,0.0382,0.0377,0.0337,0.0318,0.0296,0.0296,0.0286,0.0281,0.028,0.0278,0.0278,0.0278,0.0276,0.0276,0.0278,0.0278,0.0278,0.0277,0,0.0535,0.0519,0.0513,0.0484,0.0471,0.0457,0.0433,0.0422,0.0409,0.0392,0.0372,0.0348,0.0324,0.0318,0.0305,0.0294,0.0292,0.0283,0.0275,0.028,0.0278,0.0277,0.0279,0.0279,0.0279,0.0278,0,0,0.0554,0.0514,0.0512,0.0499,0.0469,0.0456,0.0442,0.0418,0.0409,0.0389,0.0375,0.0349,0.034,0.0326,0.031,0.0302,0.0302,0.0294,0.0293,0.0296,0.0287,0.0294,0.0294,0.0293,0.0293,0.0292,0.0289,0,0.0554,0.0527,0.0508,0.0488,0.0473,0.0452,0.044,0.042,0.0404,0.0387,0.0369,0.0351,0.0342,0.0332,0.0324,0.0304,0.0299,0.0304,0.0279,0.0278,0.0286,0.0293,0.0299,0.0297,0.0289,0.0288,0.0288,0,0.055,0.0532,0.0511,0.0483,0.0476,0.0465,0.0442,0.0427,0.0404,0.0393,0.0376,0.036,0.0343,0.0337,0.0313,0.0316,0.0305,0.0294,0.0293,0.0289,0.0283,0.0289,0.0296,0.0296,0.0287,0.0287,0.0287,0,0.0565,0.0535,0.0518,0.0508,0.0475,0.0467,0.0453,0.043,0.0417,0.0397,0.0389,0.0367,0.0354,0.0337,0.0316,0.0313,0.0293,0.0286,0.0283,0.0283,0.0279,0.0279,0.0284,0.0273,0.0273,0.0273,0.0273,0,0.0567,0.0555,0.0524,0.0514,0.05,0.0477,0.0464,0.0448,0.0427,0.0413,0.0394,0.0381,0.0354,0.0337,0.032,0.0302,0.0297,0.0286,0.0282,0.0288,0.0289,0.028,0.0279,0.0273,0.0273,0.0273,0.0273,0,0.0581,0.056,0.0541,0.0512,0.0504,0.0495,0.0469,0.0458,0.0441,0.0423,0.0418,0.0391,0.037,0.0347,0.0319,0.0308,0.029,0.0284,0.0299,0.0296,0.0294,0.0294,0.0293,0.0291,0.0282,0.0282,0.0282,0,0.0583,0.0574,0.0544,0.0533,0.052,0.0503,0.049,0.0468,0.0455,0.0428,0.042,0.0398,0.038,0.0348,0.0325,0.0303,0.0296,0.0297,0.0292,0.0298,0.0295,0.0296,0.0294,0.0298,0.0298,0.0298,0.0298,0,0.0589,0.058,0.0562,0.0541,0.0527,0.0509,0.049,0.0482,0.0456,0.0443,0.0422,0.0407,0.0379,0.0357,0.0332,0.0317,0.0303,0.03,0.0298,0.0304,0.0312,0.0307,0.0301,0.03,0.03,0.03,0.03,0.03,0.0597,0.0587,0.0565,0.0546,0.053,0.0513,0.0501,0.0483,0.0465,0.0441,0.0428,0.0408,0.0384,0.035,0.0335,0.0318,0.0313,0.0311,0.031,0.0309,0.0311,0.0316,0.0313,0.0313,0.0313,0.0313,0.0313,0,0.0601,0.0586,0.0569,0.0544,0.0529,0.0518,0.0497,0.0485,0.0467,0.0447,0.043,0.0405,0.0384,0.036,0.0338,0.0328,0.0321,0.0323,0.0323,0.032,0.0316,0.032,0.0329,0.0329,0.0329,0.0329,0.0329,0.0329,0.0602,0.0585,0.0573,0.0547,0.0532,0.0512,0.05,0.0485,0.0468,0.0443,0.0425,0.041,0.0388,0.0364,0.0344,0.0337,0.0329,0.0333,0.0324,0.0321,0.032,0.0319,0.0322,0.0332,0.0332,0.0329,0.0329,0.0329]}]]